�N����,����,�g�[���i���ԁj���x,�g�[�����x,��g�[���i���ցj���x,����
 2003/12/01, 0:00,18.6,74,16.4,17.1
 2003/12/01, 0:15,18.5,74,16.4,17.2
 2003/12/01, 0:30,18.4,74,16.4,17.2
 2003/12/01, 0:45,18.5,74,16.4,17.3
 2003/12/01, 1:00,18.5,74,16.3,17.3
 2003/12/01, 1:15,18.3,74,16.3,17.4
 2003/12/01, 1:30,18.3,74,16.3,17.5
 2003/12/01, 1:45,18.3,74,16.3,17.5
 2003/12/01, 2:00,18.1,75,16.3,17.6
 2003/12/01, 2:15,18.2,75,16.3,17.7
 2003/12/01, 2:30,18.1,74,16.3,17.7
 2003/12/01, 2:45,18,74,16.2,17.8
 2003/12/01, 3:00,18.1,74,16.2,17.8
 2003/12/01, 3:15,18.1,74,16.2,17.9
 2003/12/01, 3:30,18,74,16.2,17.9
 2003/12/01, 3:45,17.9,74,16.2,18
 2003/12/01, 4:00,17.8,74,16.2,18
 2003/12/01, 4:15,17.9,75,16.1,18.1
 2003/12/01, 4:30,17.8,75,16.1,18.1
 2003/12/01, 4:45,17.8,74,16.1,18.2
 2003/12/01, 5:00,17.8,74,16.1,18.2
 2003/12/01, 5:15,17.7,75,16.1,18.2
 2003/12/01, 5:30,17.6,74,16.1,18.3
 2003/12/01, 5:45,17.6,74,16.1,18.3
 2003/12/01, 6:00,17.6,74,16.1,18.4
 2003/12/01, 6:15,17.7,74,16.1,17.9
 2003/12/01, 6:30,17.6,77,16.1,17.9
 2003/12/01, 6:45,17.8,82,16.1,18.1
 2003/12/01, 7:00,17.8,82,16.3,18.1
 2003/12/01, 7:15,18,79,16.4,17.5
 2003/12/01, 7:30,18,78,16.4,17.6
 2003/12/01, 7:45,18.1,78,16.4,17.1
 2003/12/01, 8:00,18.1,79,16.4,16.7
 2003/12/01, 8:15,18.1,78,16.5,16.8
 2003/12/01, 8:30,18.1,77,16.6,16.8
 2003/12/01, 8:45,18,76,16.6,16.9
 2003/12/01, 9:00,17.8,76,16.6,17
 2003/12/01, 9:15,17.8,76,16.6,17.1
 2003/12/01, 9:30,17.8,76,16.6,17.1
 2003/12/01, 9:45,17.8,76,16.5,17.2
 2003/12/01,10:00,17.8,75,16.5,17.2
 2003/12/01,10:15,17.7,76,16.5,17.3
 2003/12/01,10:30,17.7,76,16.5,17.4
 2003/12/01,10:45,17.6,75,16.4,17.4
 2003/12/01,11:00,17.6,75,16.4,17.5
 2003/12/01,11:15,17.6,75,16.4,17.5
 2003/12/01,11:30,17.5,75,16.4,17.6
 2003/12/01,11:45,17.6,74,16.4,17.7
 2003/12/01,12:00,17.5,75,16.3,17.7
 2003/12/01,12:15,17.5,75,16.3,17.8
 2003/12/01,12:30,17.5,75,16.3,17.8
 2003/12/01,12:45,17.5,75,16.3,17.9
 2003/12/01,13:00,17.5,75,16.3,17.9
 2003/12/01,13:15,17.5,75,16.3,18
 2003/12/01,13:30,17.5,75,16.3,18
 2003/12/01,13:45,17.4,75,16.3,18.1
 2003/12/01,14:00,17.5,75,16.3,18.1
 2003/12/01,14:15,17.3,75,16.3,18.2
 2003/12/01,14:30,17.3,75,16.3,18.2
 2003/12/01,14:45,17.3,76,16.2,18.3
 2003/12/01,15:00,17.3,76,16.2,18.3
 2003/12/01,15:15,17.3,75,16.2,18.3
 2003/12/01,15:30,17.4,75,16.2,18.4
 2003/12/01,15:45,17.3,75,16.2,18.4
 2003/12/01,16:00,17.3,75,16.2,18.5
 2003/12/01,16:15,17.4,76,16.2,18.5
 2003/12/01,16:30,17.3,78,16.2,18.5
 2003/12/01,16:45,17.3,77,16.2,18.6
 2003/12/01,17:00,17.3,76,16.2,18.6
 2003/12/01,17:15,17.4,77,16.2,18.6
 2003/12/01,17:30,17.3,78,16.2,18.7
 2003/12/01,17:45,17.4,78,16.1,18.7
 2003/12/01,18:00,17.5,78,16,18.7
 2003/12/01,18:15,17.5,78,15.9,18.8
 2003/12/01,18:30,17.6,77,15.9,17.8
 2003/12/01,18:45,17.7,77,15.8,17.2
 2003/12/01,19:00,17.6,77,15.8,17.2
 2003/12/01,19:15,18.1,77,15.7,17.3
 2003/12/01,19:30,18.1,76,15.7,17.4
 2003/12/01,19:45,18.1,76,15.6,17.4
 2003/12/01,20:00,18.2,76,15.6,17.5
 2003/12/01,20:15,18.3,75,15.6,17.7
 2003/12/01,20:30,18.3,74,15.5,17.2
 2003/12/01,20:45,18.3,74,15.6,17.1
 2003/12/01,21:00,18.7,74,15.6,17.1
 2003/12/01,21:15,18.7,74,15.6,17.2
 2003/12/01,21:30,18.9,72,15.5,17.2
 2003/12/01,21:45,18.9,71,15.5,17.3
 2003/12/01,22:00,19.1,71,15.5,17.3
 2003/12/01,22:15,18.9,71,15.4,17.4
 2003/12/01,22:30,19.1,71,15.4,17.4
 2003/12/01,22:45,19.1,70,15.4,17.5
 2003/12/01,23:00,19,70,15.4,17.5
 2003/12/01,23:15,19.1,70,15.5,17.6
 2003/12/01,23:30,19,69,15.5,17.3
 2003/12/01,23:45,18.8,69,15.5,17.3
 2003/12/02, 0:00,18.6,69,15.5,17.4
 2003/12/02, 0:15,18.6,69,15.5,17.4
 2003/12/02, 0:30,18.4,69,15.5,17.5
 2003/12/02, 0:45,18.4,69,15.5,17.5
 2003/12/02, 1:00,18.2,69,15.5,17.5
 2003/12/02, 1:15,18.1,69,15.5,17.6
 2003/12/02, 1:30,18.1,68,15.4,17.7
 2003/12/02, 1:45,18,67,15.4,17.7
 2003/12/02, 2:00,18,67,15.4,17.7
 2003/12/02, 2:15,17.8,68,15.4,17.8
 2003/12/02, 2:30,17.8,68,15.3,17.8
 2003/12/02, 2:45,17.7,68,15.3,17.9
 2003/12/02, 3:00,17.7,68,15.3,17.9
 2003/12/02, 3:15,17.6,68,15.3,17.9
 2003/12/02, 3:30,17.6,68,15.3,18
 2003/12/02, 3:45,17.5,68,15.3,18
 2003/12/02, 4:00,17.5,68,15.2,17
 2003/12/02, 4:15,17.4,68,15.2,17.1
 2003/12/02, 4:30,17.4,68,15.2,17.2
 2003/12/02, 4:45,17.3,68,15.2,17.2
 2003/12/02, 5:00,17.3,68,15.2,17.3
 2003/12/02, 5:15,17.3,67,15.1,17.4
 2003/12/02, 5:30,17.2,67,15.1,17.4
 2003/12/02, 5:45,17.2,66,15.1,17.4
 2003/12/02, 6:00,17.2,66,15.1,17.5
 2003/12/02, 6:15,17.1,67,15.1,17.5
 2003/12/02, 6:30,17.1,70,15,17.6
 2003/12/02, 6:45,17.7,73,15,17.6
 2003/12/02, 7:00,17.6,73,15.1,17.8
 2003/12/02, 7:15,17.7,72,15.1,17.2
 2003/12/02, 7:30,17.9,72,15,17.2
 2003/12/02, 7:45,17.9,71,15,16.4
 2003/12/02, 8:00,17.9,68,15,16.4
 2003/12/02, 8:15,18.2,66,15.4,16.5
 2003/12/02, 8:30,18.1,66,15.5,16.6
 2003/12/02, 8:45,17.9,66,15.6,16.8
 2003/12/02, 9:00,17.8,65,15.6,16.8
 2003/12/02, 9:15,17.7,65,15.5,16.9
 2003/12/02, 9:30,17.7,65,15.5,16.9
 2003/12/02, 9:45,17.6,65,15.6,16.9
 2003/12/02,10:00,17.5,65,15.5,17
 2003/12/02,10:15,17.5,65,15.6,17.1
 2003/12/02,10:30,17.5,65,15.5,17.1
 2003/12/02,10:45,17.5,64,15.6,17.2
 2003/12/02,11:00,17.5,65,15.6,17.2
 2003/12/02,11:15,17.5,64,15.6,17.3
 2003/12/02,11:30,17.5,63,15.6,17.3
 2003/12/02,11:45,17.5,63,15.6,17.4
 2003/12/02,12:00,17.5,62,15.6,17.4
 2003/12/02,12:15,17.5,62,15.6,17.5
 2003/12/02,12:30,17.5,62,15.6,17.5
 2003/12/02,12:45,17.5,62,15.6,17.6
 2003/12/02,13:00,17.5,62,15.6,17.6
 2003/12/02,13:15,17.5,61,15.7,17.7
 2003/12/02,13:30,17.5,61,15.7,17.7
 2003/12/02,13:45,17.5,61,15.7,17.8
 2003/12/02,14:00,17.5,61,15.7,17.8
 2003/12/02,14:15,17.5,61,15.7,17.9
 2003/12/02,14:30,17.5,61,15.7,17.9
 2003/12/02,14:45,17.5,61,15.7,17.9
 2003/12/02,15:00,17.4,61,15.7,18
 2003/12/02,15:15,17.4,61,15.7,18
 2003/12/02,15:30,17.5,60,15.7,18.1
 2003/12/02,15:45,17.4,60,15.7,18.1
 2003/12/02,16:00,17.4,60,15.6,18.2
 2003/12/02,16:15,17.4,60,15.6,18.2
 2003/12/02,16:30,17.4,59,15.6,18.2
 2003/12/02,16:45,17.2,59,15.6,18.3
 2003/12/02,17:00,17.1,59,15.6,17.2
 2003/12/02,17:15,18.1,60,15.6,17.1
 2003/12/02,17:30,17.6,61,15.5,17.2
 2003/12/02,17:45,17.7,62,15.4,17.2
 2003/12/02,18:00,17.9,61,15.3,17.3
 2003/12/02,18:15,17.9,61,15.2,17.4
 2003/12/02,18:30,18,61,15.2,17.4
 2003/12/02,18:45,18.2,60,15.1,17.5
 2003/12/02,19:00,18.3,60,15.1,17
 2003/12/02,19:15,18.6,63,15,17
 2003/12/02,19:30,18.6,63,15,17
 2003/12/02,19:45,18.8,63,15,17.1
 2003/12/02,20:00,18.8,63,15,16.7
 2003/12/02,20:15,19,62,14.9,16.7
 2003/12/02,20:30,19.2,62,14.9,16.8
 2003/12/02,20:45,19.3,62,14.9,16.8
 2003/12/02,21:00,19.4,61,14.9,16.9
 2003/12/02,21:15,19.6,61,14.8,16.9
 2003/12/02,21:30,19.5,60,14.8,17
 2003/12/02,21:45,19.5,63,14.8,17
 2003/12/02,22:00,19.6,63,14.8,16.8
 2003/12/02,22:15,20,61,14.8,16.5
 2003/12/02,22:30,19.7,61,14.8,16.5
 2003/12/02,22:45,19.9,61,14.8,16.5
 2003/12/02,23:00,19.7,61,14.8,16.6
 2003/12/02,23:15,19.5,61,14.8,16.7
 2003/12/02,23:30,18.7,60,15,16.7
 2003/12/02,23:45,19,62,15,16.8
 2003/12/03, 0:00,18.9,62,15,16.8
 2003/12/03, 0:15,18.8,62,15.1,16.8
 2003/12/03, 0:30,18.6,62,15.1,16.8
 2003/12/03, 0:45,18.4,62,15.1,16.9
 2003/12/03, 1:00,18.1,61,15.1,16.9
 2003/12/03, 1:15,18,62,15.1,16.9
 2003/12/03, 1:30,17.8,62,15.2,17
 2003/12/03, 1:45,17.7,62,15.2,17.1
 2003/12/03, 2:00,17.7,62,15.2,17.1
 2003/12/03, 2:15,17.5,62,15.2,17.2
 2003/12/03, 2:30,17.4,62,15.1,17.2
 2003/12/03, 2:45,17.3,63,15.1,17.3
 2003/12/03, 3:00,17.2,63,15.1,17.3
 2003/12/03, 3:15,17.2,63,15.1,17.4
 2003/12/03, 3:30,17.1,63,15.1,17.4
 2003/12/03, 3:45,17,63,15,17.5
 2003/12/03, 4:00,17,63,15,17.5
 2003/12/03, 4:15,16.9,63,15,17.6
 2003/12/03, 4:30,17,63,15,17.6
 2003/12/03, 4:45,16.9,63,14.9,17.7
 2003/12/03, 5:00,16.7,63,14.9,17.7
 2003/12/03, 5:15,16.7,64,14.9,17.7
 2003/12/03, 5:30,16.6,64,14.9,17.8
 2003/12/03, 5:45,16.7,66,14.9,17.8
 2003/12/03, 6:00,16.7,66,14.8,17.8
 2003/12/03, 6:15,16.6,66,14.8,16.8
 2003/12/03, 6:30,16.9,65,14.8,16.7
 2003/12/03, 6:45,16.7,66,14.7,16.8
 2003/12/03, 7:00,18.2,61,14.7,16.6
 2003/12/03, 7:15,18.6,59,14.8,16.6
 2003/12/03, 7:30,18.5,60,14.8,16.4
 2003/12/03, 7:45,18.5,61,14.8,16.2
 2003/12/03, 8:00,19.2,60,14.8,16.2
 2003/12/03, 8:15,19.6,56,14.9,16.3
 2003/12/03, 8:30,19.1,57,15.2,16.3
 2003/12/03, 8:45,18.4,60,15.3,16.4
 2003/12/03, 9:00,18.3,60,15.4,16.4
 2003/12/03, 9:15,18.2,61,15.5,16.5
 2003/12/03, 9:30,18.2,61,15.7,16.6
 2003/12/03, 9:45,18.2,62,15.8,16.6
 2003/12/03,10:00,18.2,62,15.9,16.7
 2003/12/03,10:15,18.1,62,16.1,16.7
 2003/12/03,10:30,18.1,62,16.2,16.8
 2003/12/03,10:45,18.1,62,16.3,16.9
 2003/12/03,11:00,18.1,62,16.4,16.9
 2003/12/03,11:15,18.2,62,16.5,17
 2003/12/03,11:30,18.2,62,16.6,17
 2003/12/03,11:45,18.2,62,16.8,17.1
 2003/12/03,12:00,18.2,62,16.9,17.2
 2003/12/03,12:15,18.2,62,17,17.2
 2003/12/03,12:30,18.4,62,17.1,17.3
 2003/12/03,12:45,18.3,62,17.2,17.3
 2003/12/03,13:00,18.4,62,17.2,17.4
 2003/12/03,13:15,18.4,62,17.3,17.4
 2003/12/03,13:30,18.6,61,17.4,17.5
 2003/12/03,13:45,18.5,61,17.5,17.6
 2003/12/03,14:00,18.6,60,17.5,17.6
 2003/12/03,14:15,18.5,60,17.5,17.7
 2003/12/03,14:30,18.5,60,17.4,17.7
 2003/12/03,14:45,18.5,59,17.4,17.8
 2003/12/03,15:00,18.5,59,17.3,17.9
 2003/12/03,15:15,18.6,58,17.3,17.9
 2003/12/03,15:30,18.5,59,17.2,18
 2003/12/03,15:45,18.4,59,17.1,18
 2003/12/03,16:00,18.5,58,17.1,18.1
 2003/12/03,16:15,18.5,58,17,18.1
 2003/12/03,16:30,18.4,58,17,18.2
 2003/12/03,16:45,18.2,58,16.9,18.2
 2003/12/03,17:00,18.3,58,16.8,16.9
 2003/12/03,17:15,18.8,56,16.8,17
 2003/12/03,17:30,18.7,59,16.7,17.1
 2003/12/03,17:45,18.7,60,16.5,17.1
 2003/12/03,18:00,18.9,59,16.4,17.2
 2003/12/03,18:15,19,60,16.3,17.3
 2003/12/03,18:30,19.2,60,16.2,17.3
 2003/12/03,18:45,19.3,61,16.2,17.4
 2003/12/03,19:00,19.3,60,16.1,17.4
 2003/12/03,19:15,19.4,61,16,16.9
 2003/12/03,19:30,19.6,63,15.9,17
 2003/12/03,19:45,19.7,63,15.8,17
 2003/12/03,20:00,19.7,62,15.8,16.5
 2003/12/03,20:15,19.7,62,15.7,16.6
 2003/12/03,20:30,19.7,58,15.6,16.4
 2003/12/03,20:45,19.7,63,15.6,16.5
 2003/12/03,21:00,20,65,15.6,16.5
 2003/12/03,21:15,20,64,15.6,16.6
 2003/12/03,21:30,20,63,15.6,16.7
 2003/12/03,21:45,19.9,63,15.9,16.8
 2003/12/03,22:00,20.1,64,16.1,16.9
 2003/12/03,22:15,20.1,64,16.1,16.9
 2003/12/03,22:30,20.1,64,16.2,16.7
 2003/12/03,22:45,19.8,65,16.3,16.7
 2003/12/03,23:00,19.6,65,16.3,16.7
 2003/12/03,23:15,19.4,65,16.3,16.8
 2003/12/03,23:30,19.3,64,16.3,16.9
 2003/12/03,23:45,19.3,64,16.3,16.9
 2003/12/04, 0:00,18.9,65,16.3,17
 2003/12/04, 0:15,18.9,64,16.3,17.1
 2003/12/04, 0:30,18.6,64,16.4,17.4
 2003/12/04, 0:45,18.5,63,16.4,17.5
 2003/12/04, 1:00,18.2,64,16.4,16.7
 2003/12/04, 1:15,18.2,64,16.4,16.8
 2003/12/04, 1:30,18.1,64,16.3,16.9
 2003/12/04, 1:45,17.9,64,16.2,16.9
 2003/12/04, 2:00,17.8,64,16.2,17
 2003/12/04, 2:15,17.7,64,16.1,17.1
 2003/12/04, 2:30,17.6,63,16,16.7
 2003/12/04, 2:45,17.5,63,16,16.7
 2003/12/04, 3:00,17.4,64,15.9,16.8
 2003/12/04, 3:15,17.3,63,15.8,16.8
 2003/12/04, 3:30,17.2,63,15.7,16.9
 2003/12/04, 3:45,17.2,63,15.6,17
 2003/12/04, 4:00,17.1,63,15.6,17
 2003/12/04, 4:15,17,62,15.5,17.1
 2003/12/04, 4:30,16.8,62,15.5,17.1
 2003/12/04, 4:45,16.9,62,15.4,16.7
 2003/12/04, 5:00,16.7,63,15.4,16.7
 2003/12/04, 5:15,16.7,63,15.3,16.8
 2003/12/04, 5:30,16.7,63,15.2,16.8
 2003/12/04, 5:45,16.6,64,15.1,16.9
 2003/12/04, 6:00,16.6,64,15.1,16.9
 2003/12/04, 6:15,16.5,66,15,16.7
 2003/12/04, 6:30,16.7,72,15,16.8
 2003/12/04, 6:45,17.1,77,14.9,16.8
 2003/12/04, 7:00,17.1,76,14.9,16.9
 2003/12/04, 7:15,17.3,73,15,16.8
 2003/12/04, 7:30,17.7,72,15,16.9
 2003/12/04, 7:45,18.2,65,15.1,16.4
 2003/12/04, 8:00,18.2,59,15.3,16.3
 2003/12/04, 8:15,18.8,57,15.3,16.3
 2003/12/04, 8:30,19.4,55,15.3,16.4
 2003/12/04, 8:45,20,53,15.4,16.4
 2003/12/04, 9:00,20.6,52,15.5,16.5
 2003/12/04, 9:15,21.2,50,15.6,16.5
 2003/12/04, 9:30,21.3,50,15.7,16.6
 2003/12/04, 9:45,20.8,51,15.8,16.6
 2003/12/04,10:00,20.4,52,15.9,16.7
 2003/12/04,10:15,19.6,52,16,16.8
 2003/12/04,10:30,19.7,53,16,16.8
 2003/12/04,10:45,19.4,53,16,16.9
 2003/12/04,11:00,19.5,53,16.1,16.9
 2003/12/04,11:15,19.5,54,16.2,17
 2003/12/04,11:30,19.3,53,16.3,17.1
 2003/12/04,11:45,19.3,54,16.4,17.1
 2003/12/04,12:00,19.4,54,16.5,17.2
 2003/12/04,12:15,19.4,54,16.6,17.2
 2003/12/04,12:30,19.5,54,16.8,17.3
 2003/12/04,12:45,19.4,54,16.9,17.3
 2003/12/04,13:00,19.3,53,16.9,17.4
 2003/12/04,13:15,19.3,53,16.8,17.4
 2003/12/04,13:30,18.9,53,16.7,17.5
 2003/12/04,13:45,18.7,53,16.6,17.5
 2003/12/04,14:00,18.6,53,16.5,17.6
 2003/12/04,14:15,18.5,53,16.5,17.7
 2003/12/04,14:30,18.4,53,16.4,17.7
 2003/12/04,14:45,18.6,53,16.4,17.8
 2003/12/04,15:00,18.4,54,16.5,17.8
 2003/12/04,15:15,18.3,53,16.5,17.9
 2003/12/04,15:30,18.2,53,16.4,17.9
 2003/12/04,15:45,18.1,53,16.4,18
 2003/12/04,16:00,18,54,16.3,18
 2003/12/04,16:15,17.9,53,16.2,18.1
 2003/12/04,16:30,17.9,53,16.1,18.1
 2003/12/04,16:45,17.8,54,16,18.2
 2003/12/04,17:00,17.8,54,16,18.2
 2003/12/04,17:15,17.8,54,15.9,18.2
 2003/12/04,17:30,17.7,54,15.9,18.3
 2003/12/04,17:45,18.2,54,15.8,17.2
 2003/12/04,18:00,18.2,56,15.6,17.2
 2003/12/04,18:15,18.4,56,15.4,17.3
 2003/12/04,18:30,18.4,55,15.3,17.4
 2003/12/04,18:45,18.6,54,15.4,17.1
 2003/12/04,19:00,19,55,15.2,17.1
 2003/12/04,19:15,18.9,55,15.1,17.1
 2003/12/04,19:30,18.9,55,15,17.2
 2003/12/04,19:45,18.8,54,15,17.3
 2003/12/04,20:00,18.8,52,15,17.1
 2003/12/04,20:15,18.9,55,15.1,17.1
 2003/12/04,20:30,19,55,15.1,17.1
 2003/12/04,20:45,18.9,55,15.2,17.2
 2003/12/04,21:00,18.9,56,15.2,17.2
 2003/12/04,21:15,18.9,56,15.2,17.3
 2003/12/04,21:30,18.8,55,15.2,16.9
 2003/12/04,21:45,18.9,56,15.1,16.9
 2003/12/04,22:00,19,59,15,17
 2003/12/04,22:15,19,59,15.3,17
 2003/12/04,22:30,19.2,59,15.6,16.8
 2003/12/04,22:45,19,59,15.8,16.8
 2003/12/04,23:00,19,59,15.9,16.9
 2003/12/04,23:15,18.9,59,15.9,16.9
 2003/12/04,23:30,18.8,59,16.1,17
 2003/12/04,23:45,18.5,59,16.1,17.1
 2003/12/05, 0:00,18.2,58,16.1,17.1
 2003/12/05, 0:15,18.1,59,16.1,17.1
 2003/12/05, 0:30,17.9,59,16.1,17.6
 2003/12/05, 0:45,17.8,59,16.1,16.7
 2003/12/05, 1:00,17.6,59,16.1,16.8
 2003/12/05, 1:15,17.4,59,16.1,16.9
 2003/12/05, 1:30,17.2,59,16,16.9
 2003/12/05, 1:45,17.1,59,15.9,17
 2003/12/05, 2:00,17,60,15.8,17
 2003/12/05, 2:15,17,59,15.7,17.1
 2003/12/05, 2:30,16.8,59,15.6,17.1
 2003/12/05, 2:45,16.7,59,15.5,17.2
 2003/12/05, 3:00,16.6,59,15.4,17.2
 2003/12/05, 3:15,16.5,60,15.4,17.3
 2003/12/05, 3:30,16.4,60,15.3,17.4
 2003/12/05, 3:45,16.4,60,15.2,17.4
 2003/12/05, 4:00,16.4,60,15.1,17.4
 2003/12/05, 4:15,16.2,60,15,17.5
 2003/12/05, 4:30,16.1,60,14.9,17.5
 2003/12/05, 4:45,16,60,14.9,16.2
 2003/12/05, 5:00,16,60,14.8,16.3
 2003/12/05, 5:15,15.9,60,14.7,16.3
 2003/12/05, 5:30,15.9,60,14.7,16.4
 2003/12/05, 5:45,15.8,64,14.7,16.5
 2003/12/05, 6:00,15.7,64,14.7,16.5
 2003/12/05, 6:15,15.7,63,14.7,16.1
 2003/12/05, 6:30,17.1,59,14.7,16.2
 2003/12/05, 6:45,17.6,56,14.7,16.2
 2003/12/05, 7:00,17.6,57,14.6,16.3
 2003/12/05, 7:15,17.8,57,14.7,16.4
 2003/12/05, 7:30,17.5,59,14.6,16.2
 2003/12/05, 7:45,17.6,58,14.6,15.9
 2003/12/05, 8:00,17.5,56,14.8,16
 2003/12/05, 8:15,18.7,55,15,16
 2003/12/05, 8:30,19.2,54,15.1,16.1
 2003/12/05, 8:45,19.5,53,15.1,16.2
 2003/12/05, 9:00,19.5,53,15.2,16.2
 2003/12/05, 9:15,19.2,54,15.3,16.3
 2003/12/05, 9:30,19.3,54,15.4,16.3
 2003/12/05, 9:45,19.2,54,15.4,16.4
 2003/12/05,10:00,19.2,54,15.5,16.4
 2003/12/05,10:15,18.9,55,15.6,16.5
 2003/12/05,10:30,18.9,55,15.8,16.6
 2003/12/05,10:45,18.9,55,15.9,16.6
 2003/12/05,11:00,18.9,55,16,16.7
 2003/12/05,11:15,18.9,56,16.2,16.7
 2003/12/05,11:30,18.8,56,16.3,16.8
 2003/12/05,11:45,18.9,56,16.5,16.8
 2003/12/05,12:00,18.9,55,16.6,16.9
 2003/12/05,12:15,18.9,55,16.8,17
 2003/12/05,12:30,18.9,55,17,17
 2003/12/05,12:45,19,55,17.1,17.1
 2003/12/05,13:00,19,55,17.2,17.2
 2003/12/05,13:15,19,55,17.4,17.2
 2003/12/05,13:30,19,55,17.5,17.3
 2003/12/05,13:45,19,55,17.5,17.3
 2003/12/05,14:00,19,55,17.6,17.4
 2003/12/05,14:15,19.1,55,17.6,17.5
 2003/12/05,14:30,19,55,17.6,17.5
 2003/12/05,14:45,19,54,17.6,17.6
 2003/12/05,15:00,19,54,17.7,17.6
 2003/12/05,15:15,19,54,17.6,17.7
 2003/12/05,15:30,19,54,17.6,17.8
 2003/12/05,15:45,18.9,54,17.5,16.3
 2003/12/05,16:00,18.8,54,17.4,16.4
 2003/12/05,16:15,18.8,54,17.3,16.5
 2003/12/05,16:30,18.6,54,17.2,16.6
 2003/12/05,16:45,18.5,54,17.1,16.7
 2003/12/05,17:00,18.5,54,17.1,16.4
 2003/12/05,17:15,18.4,54,17.1,16.5
 2003/12/05,17:30,18.5,54,17.1,16.6
 2003/12/05,17:45,18.4,54,17.1,16.6
 2003/12/05,18:00,18.3,54,17,16.7
 2003/12/05,18:15,18.2,54,17,16.8
 2003/12/05,18:30,18.2,54,17,16.9
 2003/12/05,18:45,18.1,54,16.9,16.9
 2003/12/05,19:00,18.2,55,16.9,17
 2003/12/05,19:15,18.2,56,16.9,17.1
 2003/12/05,19:30,18.2,56,16.9,17.2
 2003/12/05,19:45,18.4,55,16.8,16.5
 2003/12/05,20:00,18.4,55,16.6,16.6
 2003/12/05,20:15,18.3,55,16.4,16.7
 2003/12/05,20:30,18.3,55,16.3,16.7
 2003/12/05,20:45,18.3,55,16.2,16.8
 2003/12/05,21:00,18.2,55,16.1,16.9
 2003/12/05,21:15,18.6,56,16,17
 2003/12/05,21:30,18.6,57,15.9,17
 2003/12/05,21:45,18.7,58,15.8,17.1
 2003/12/05,22:00,18.8,58,15.8,17.2
 2003/12/05,22:15,18.9,58,15.7,17.2
 2003/12/05,22:30,19.2,57,15.6,17.3
 2003/12/05,22:45,19.2,57,15.6,17.3
 2003/12/05,23:00,19.1,57,15.6,16.6
 2003/12/05,23:15,19.2,58,15.7,16.7
 2003/12/05,23:30,19.2,59,15.6,16.8
 2003/12/05,23:45,19.1,59,15.6,16.8
 2003/12/06, 0:00,19.2,58,15.6,16.7
 2003/12/06, 0:15,19,58,15.5,16.7
 2003/12/06, 0:30,18.8,59,15.6,16.8
 2003/12/06, 0:45,18.6,57,15.6,16.9
 2003/12/06, 1:00,18.2,57,15.8,16.8
 2003/12/06, 1:15,18.1,58,15.9,16.9
 2003/12/06, 1:30,18.1,58,15.9,16.9
 2003/12/06, 1:45,18,58,16,17
 2003/12/06, 2:00,17.9,58,16,17.1
 2003/12/06, 2:15,17.8,58,16,17.1
 2003/12/06, 2:30,17.9,58,15.9,17.2
 2003/12/06, 2:45,17.7,58,15.9,17.2
 2003/12/06, 3:00,17.7,58,15.9,17.3
 2003/12/06, 3:15,17.7,58,15.9,17.4
 2003/12/06, 3:30,17.6,59,15.8,17.4
 2003/12/06, 3:45,17.6,59,15.8,17.5
 2003/12/06, 4:00,17.5,59,15.8,17.5
 2003/12/06, 4:15,17.4,59,15.7,17.6
 2003/12/06, 4:30,17.3,59,15.7,17.6
 2003/12/06, 4:45,17.4,59,15.6,17.7
 2003/12/06, 5:00,17.3,59,15.6,17.7
 2003/12/06, 5:15,17.3,59,15.6,17.8
 2003/12/06, 5:30,17.2,59,15.5,17.8
 2003/12/06, 5:45,17.1,59,15.5,17.9
 2003/12/06, 6:00,17.1,60,15.5,17.9
 2003/12/06, 6:15,17,60,15.4,18
 2003/12/06, 6:30,17.1,60,15.4,18
 2003/12/06, 6:45,16.8,60,15.5,18.1
 2003/12/06, 7:00,16.4,61,15.4,16.6
 2003/12/06, 7:15,17.3,60,15.3,16.6
 2003/12/06, 7:30,17.3,61,15.2,16.7
 2003/12/06, 7:45,17.4,62,15.1,16.7
 2003/12/06, 8:00,17.4,62,15,16.7
 2003/12/06, 8:15,17.5,62,15,16.8
 2003/12/06, 8:30,17.7,62,14.9,16.8
 2003/12/06, 8:45,17.7,64,14.9,16.9
 2003/12/06, 9:00,17.8,63,15,16.8
 2003/12/06, 9:15,18,64,15.1,16.6
 2003/12/06, 9:30,18.1,65,15.2,16.6
 2003/12/06, 9:45,18.1,66,15.1,16.7
 2003/12/06,10:00,18,64,15.2,16.7
 2003/12/06,10:15,16.7,61,15.4,16.8
 2003/12/06,10:30,17.1,65,15.4,16.8
 2003/12/06,10:45,17.7,67,15.3,16.9
 2003/12/06,11:00,17.9,68,15.2,17
 2003/12/06,11:15,18,70,15.1,16.7
 2003/12/06,11:30,18.2,72,15.1,16.7
 2003/12/06,11:45,18.2,72,15,16.8
 2003/12/06,12:00,18.3,74,15,16.8
 2003/12/06,12:15,18.3,76,14.9,16.9
 2003/12/06,12:30,18.4,76,14.9,16.7
 2003/12/06,12:45,18.5,77,14.9,16.7
 2003/12/06,13:00,18.4,78,14.9,16.6
 2003/12/06,13:15,18.4,76,14.9,16.6
 2003/12/06,13:30,18.5,77,14.9,16.7
 2003/12/06,13:45,18.5,76,14.9,16.8
 2003/12/06,14:00,18.6,75,15,16.7
 2003/12/06,14:15,18.6,76,15,16.7
 2003/12/06,14:30,18.7,76,15.1,16.8
 2003/12/06,14:45,18.7,76,15.1,16.9
 2003/12/06,15:00,18.7,76,15.1,17
 2003/12/06,15:15,18.6,75,15.2,17
 2003/12/06,15:30,18.6,75,15.2,17.1
 2003/12/06,15:45,18.6,75,15.2,17.1
 2003/12/06,16:00,18.5,75,15.2,16.9
 2003/12/06,16:15,18.2,72,15.4,16.9
 2003/12/06,16:30,18.4,71,15.5,17
 2003/12/06,16:45,18.3,72,15.5,17
 2003/12/06,17:00,18.3,72,15.4,17.1
 2003/12/06,17:15,18.2,72,15.4,17.2
 2003/12/06,17:30,18.2,72,15.4,17.2
 2003/12/06,17:45,18.3,72,15.4,16.8
 2003/12/06,18:00,18.1,72,15.4,16.8
 2003/12/06,18:15,18.1,73,15.4,16.9
 2003/12/06,18:30,18.2,74,15.4,16.9
 2003/12/06,18:45,18.4,75,15.4,17
 2003/12/06,19:00,18.5,76,15.4,16.7
 2003/12/06,19:15,18.6,76,15.4,16.8
 2003/12/06,19:30,18.6,75,15.4,16.7
 2003/12/06,19:45,18.7,75,15.4,16.7
 2003/12/06,20:00,18.6,75,15.5,16.6
 2003/12/06,20:15,18.6,74,15.5,16.6
 2003/12/06,20:30,18.5,75,15.5,16.1
 2003/12/06,20:45,18.6,74,15.6,16.2
 2003/12/06,21:00,18.6,74,15.6,16.3
 2003/12/06,21:15,18.6,74,15.6,16.4
 2003/12/06,21:30,18.7,74,15.6,16.5
 2003/12/06,21:45,18.6,75,15.6,16.5
 2003/12/06,22:00,18.7,74,15.7,16.8
 2003/12/06,22:15,18.8,75,15.7,16.7
 2003/12/06,22:30,18.8,74,15.7,16.7
 2003/12/06,22:45,18.8,74,15.7,16.8
 2003/12/06,23:00,18.9,74,15.7,16.8
 2003/12/06,23:15,18.7,73,15.8,16.9
 2003/12/06,23:30,18.5,72,15.9,17
 2003/12/06,23:45,18.6,71,15.9,17.1
 2003/12/07, 0:00,18.4,70,16,17.1
 2003/12/07, 0:15,18.2,70,16.1,17.2
 2003/12/07, 0:30,18.2,70,16.1,17.3
 2003/12/07, 0:45,18.1,70,16.1,17.3
 2003/12/07, 1:00,18.1,70,16.1,17.4
 2003/12/07, 1:15,18.1,70,16.1,17.4
 2003/12/07, 1:30,17.9,69,16.1,17.5
 2003/12/07, 1:45,17.8,69,16,17.5
 2003/12/07, 2:00,17.8,68,16,17.6
 2003/12/07, 2:15,17.7,67,15.9,17.7
 2003/12/07, 2:30,17.6,68,15.9,17.7
 2003/12/07, 2:45,17.5,67,15.9,17.8
 2003/12/07, 3:00,17.5,67,15.8,17.8
 2003/12/07, 3:15,17.5,68,15.8,17.9
 2003/12/07, 3:30,17.3,67,15.7,17.9
 2003/12/07, 3:45,17.4,67,15.7,18
 2003/12/07, 4:00,17.2,67,15.6,18
 2003/12/07, 4:15,17.3,67,15.6,18.1
 2003/12/07, 4:30,17.3,66,15.5,18.1
 2003/12/07, 4:45,17.1,66,15.5,18.2
 2003/12/07, 5:00,17,66,15.5,18.2
 2003/12/07, 5:15,17,65,15.4,18.2
 2003/12/07, 5:30,16.9,66,15.4,18.3
 2003/12/07, 5:45,16.9,65,15.4,18.3
 2003/12/07, 6:00,16.9,65,15.3,18.3
 2003/12/07, 6:15,16.8,65,15.3,18.4
 2003/12/07, 6:30,16.8,65,15.2,18.4
 2003/12/07, 6:45,16.8,65,15.2,18.4
 2003/12/07, 7:00,16.7,65,15.2,17
 2003/12/07, 7:15,16.9,65,15.1,17.1
 2003/12/07, 7:30,16.9,66,15.1,17.2
 2003/12/07, 7:45,16.8,66,15,17.2
 2003/12/07, 8:00,16.9,66,15,17.3
 2003/12/07, 8:15,17.7,65,15,17
 2003/12/07, 8:30,19,60,15.2,16.8
 2003/12/07, 8:45,19.2,61,15.5,16.9
 2003/12/07, 9:00,18.4,61,15.6,16.6
 2003/12/07, 9:15,18.4,62,15.8,16.3
 2003/12/07, 9:30,18.4,62,15.9,16.4
 2003/12/07, 9:45,18.3,60,15.9,16.4
 2003/12/07,10:00,18.4,62,16.1,16.3
 2003/12/07,10:15,18.5,62,16.4,16.3
 2003/12/07,10:30,18.5,61,16.7,16.4
 2003/12/07,10:45,18.5,61,16.6,16.5
 2003/12/07,11:00,18.6,61,16.8,16.5
 2003/12/07,11:15,18.7,60,16.8,16.6
 2003/12/07,11:30,18.8,60,17,16.7
 2003/12/07,11:45,18.8,59,16.9,16.7
 2003/12/07,12:00,18.8,59,17,16.8
 2003/12/07,12:15,18.9,58,17.1,16.9
 2003/12/07,12:30,18.9,58,17.1,16.9
 2003/12/07,12:45,18.9,58,17.2,16.6
 2003/12/07,13:00,18.9,57,17.3,16.6
 2003/12/07,13:15,18.8,56,17.3,16.7
 2003/12/07,13:30,18.9,58,17.3,16.7
 2003/12/07,13:45,19,60,17.4,16.8
 2003/12/07,14:00,19.1,60,17.4,16.9
 2003/12/07,14:15,19.1,59,17.5,16.2
 2003/12/07,14:30,19.2,62,17.3,16.3
 2003/12/07,14:45,19.2,62,17,16.4
 2003/12/07,15:00,19.2,61,16.8,16.4
 2003/12/07,15:15,19.3,59,16.6,16.5
 2003/12/07,15:30,19.2,60,16.5,16.4
 2003/12/07,15:45,19.5,60,16.4,16.4
 2003/12/07,16:00,19.6,60,16.3,16.5
 2003/12/07,16:15,19.6,60,16.2,16.6
 2003/12/07,16:30,19.6,60,16.1,16.7
 2003/12/07,16:45,19.7,60,16,16.7
 2003/12/07,17:00,19.8,59,15.8,16.8
 2003/12/07,17:15,19.9,57,15.7,16.9
 2003/12/07,17:30,20,57,15.6,16.9
 2003/12/07,17:45,20,58,15.5,17
 2003/12/07,18:00,20.1,57,15.4,17.1
 2003/12/07,18:15,20.1,57,15.2,17.2
 2003/12/07,18:30,20.1,57,15.1,17.2
 2003/12/07,18:45,20,57,15,17.3
 2003/12/07,19:00,20.1,56,15,16.5
 2003/12/07,19:15,19.9,57,14.9,16.5
 2003/12/07,19:30,19.8,61,14.8,16.6
 2003/12/07,19:45,19.9,60,14.7,16.6